QPF
0.00 0.00 0.00 0.00 0.00 0.00 0.00 0.00 0.00 0.00 0.00 0.00 0.00 0.00 0.00 0.00 0.00 0.00 0.00 0.00 0.00 0.00 0.00 0.00 0.00 0.00 0.00 0.00 0.00 0.00 0.00 0.00 0.00 0.00 0.00 0.00 0.00 0.00 0.00 0.00 0.00 0.00 0.00 0.00 0.00 0.00 0.00 0.00 0.00
0.00 0.00 0.00 0.00 0.00 0.00 0.00 0.00 0.00 0.00 0.00 0.00 0.00 0.00 0.00 0.00 0.00 0.00 0.00 0.00 0.00 0.00 0.00 0.00 0.00 0.00 0.00 0.00 0.00 0.00 0.00 0.00 0.00 0.00 0.00 0.00 0.00 0.00 0.00 0.00 0.00 0.00 0.00 0.00 0.00 0.00 0.00 0.00 0.00
0.00 0.00 0.00 0.00 0.00 0.00 0.00 0.00 0.00 0.00 0.00 0.00 0.00 0.00 0.00 0.00 0.00 0.00 0.00 0.00 0.00 0.00 0.00 0.00 0.00 0.00 0.00 0.00 0.00 0.00 0.00 0.00 0.00 0.00 0.00 0.00 0.00 0.00 0.00 0.00 0.00 0.00 0.00 0.00 0.00 0.00 0.00 0.00 0.00
0.00 0.00 0.00 0.00 0.00 0.00 0.00 0.00 0.00 0.00 0.00 0.00 0.00 0.00 0.00 0.00 0.00 0.00 0.00 0.00 0.00 0.00 0.00 0.00 0.00 0.00 0.00 0.00 0.00 0.00 0.00 0.00 0.00 0.00 0.00 0.00 0.00 0.00 0.00 0.00 0.00 0.00 0.00 0.00 0.00 0.00 0.00 0.00 0.00
0.00 0.00 0.00 0.00 0.00 0.00 0.00 0.00 0.00 0.00 0.00 0.00 0.00 0.00 0.00 0.00 0.00 0.00 0.00 0.00 0.00 0.00 0.00 0.00 0.00 0.00 0.00 0.00 0.00 0.00 0.00 0.00 0.00 0.00 0.00 0.00 0.00 0.00 0.00 0.00 0.00 0.00 0.00 0.00 0.00 0.00 0.00 0.00 0.00
0.00 0.00 0.00 0.00 0.00 0.00 0.00 0.00 0.00 0.00 0.00 0.00 0.00 0.00 0.00 0.00 0.00 0.00 0.00 0.00 0.00 0.00 0.00 0.00 0.00 0.00 0.00 0.00 0.00 0.00 0.00 0.00 0.00 0.00 0.00 0.00 0.00 0.00 0.00 0.00 0.00 0.00 0.00 0.00 0.01 0.01 0.00 0.00 0.00
0.00 0.00 0.00 0.00 0.00 0.00 0.00 0.00 0.00 0.00 0.00 0.00 0.00 0.00 0.00 0.00 0.00 0.00 0.00 0.00 0.00 0.00 0.00 0.00 0.00 0.00 0.00 0.00 0.00 0.00 0.00 0.00 0.00 0.00 0.00 0.00 0.00 0.00 0.00 0.00 0.00 0.00 0.00 0.00 0.01 0.01 0.00 0.00 0.00
0.00 0.00 0.00 0.00 0.00 0.00 0.00 0.00 0.00 0.00 0.00 0.00 0.00 0.00 0.00 0.00 0.00 0.00 0.00 0.00 0.00 0.00 0.00 0.00 0.00 0.00 0.00 0.00 0.00 0.00 0.00 0.00 0.00 0.00 0.00 0.00 0.00 0.00 0.00 0.00 0.02 0.02 0.00 0.00 0.02 0.01 0.00 0.00 0.00
0.00 0.00 0.00 0.00 0.00 0.00 0.00 0.00 0.00 0.00 0.00 0.00 0.00 0.00 0.00 0.00 0.00 0.00 0.00 0.00 0.00 0.00 0.00 0.00 0.00 0.00 0.00 0.00 0.00 0.00 0.00 0.00 0.00 0.00 0.00 0.00 0.00 0.00 0.00 0.00 0.00 0.01 0.01 0.01 0.02 0.00 0.00 0.00 0.00
0.00 0.00 0.00 0.00 0.00 0.00 0.00 0.00 0.00 0.00 0.00 0.00 0.00 0.00 0.00 0.00 0.00 0.00 0.00 0.00 0.00 0.00 0.00 0.00 0.00 0.00 0.00 0.00 0.00 0.00 0.00 0.00 0.00 0.00 0.00 0.00 0.00 0.00 0.00 0.00 0.01 0.02 0.02 0.01 0.01 0.00 0.00 0.00 0.00
0.00 0.00 0.00 0.00 0.00 0.00 0.00 0.00 0.00 0.00 0.00 0.00 0.00 0.00 0.00 0.00 0.00 0.00 0.00 0.00 0.00 0.00 0.00 0.00 0.00 0.00 0.00 0.00 0.00 0.00 0.00 0.00 0.00 0.00 0.00 0.00 0.00 0.00 0.00 0.01 0.02 0.02 0.00 0.00 0.00 0.00 0.00 0.00 0.00
0.00 0.00 0.00 0.00 0.00 0.00 0.00 0.00 0.00 0.00 0.00 0.00 0.00 0.00 0.00 0.00 0.00 0.00 0.00 0.00 0.00 0.00 0.00 0.00 0.00 0.00 0.00 0.00 0.00 0.00 0.00 0.00 0.00 0.00 0.00 0.00 0.00 0.00 0.00 0.00 0.01 0.01 0.01 0.00 0.01 0.00 0.00 0.00 0.01
0.00 0.00 0.00 0.00 0.00 0.00 0.00 0.00 0.00 0.00 0.00 0.00 0.00 0.00 0.00 0.00 0.00 0.00 0.00 0.00 0.00 0.00 0.00 0.00 0.00 0.00 0.00 0.00 0.00 0.00 0.00 0.00 0.00 0.00 0.00 0.00 0.00 0.00 0.00 0.00 0.00 0.00 0.00 0.01 0.01 0.01 0.01 0.01 0.02
0.00 0.00 0.00 0.00 0.00 0.00 0.00 0.00 0.00 0.00 0.00 0.00 0.00 0.00 0.00 0.00 0.00 0.00 0.00 0.00 0.00 0.00 0.00 0.00 0.00 0.00 0.00 0.00 0.00 0.00 0.00 0.00 0.00 0.00 0.00 0.00 0.00 0.00 0.00 0.00 0.00 0.00 0.00 0.00 0.00 0.01 0.01 0.02 0.03
0.00 0.00 0.00 0.00 0.00 0.00 0.00 0.00 0.00 0.00 0.00 0.00 0.00 0.00 0.00 0.00 0.00 0.00 0.00 0.00 0.00 0.00 0.00 0.00 0.00 0.00 0.00 0.00 0.00 0.00 0.00 0.00 0.00 0.00 0.00 0.00 0.00 0.00 0.00 0.00 0.00 0.00 0.00 0.00 0.00 0.01 0.01 0.02 0.02
0.00 0.00 0.00 0.00 0.00 0.00 0.00 0.00 0.00 0.00 0.00 0.00 0.00 0.00 0.00 0.00 0.00 0.00 0.00 0.00 0.00 0.00 0.00 0.00 0.00 0.00 0.00 0.00 0.00 0.00 0.00 0.00 0.00 0.00 0.00 0.00 0.00 0.00 0.00 0.00 0.00 0.00 0.00 0.00 0.00 0.00 0.00 0.01 0.01
0.00 0.00 0.00 0.00 0.00 0.00 0.00 0.00 0.00 0.00 0.00 0.00 0.00 0.00 0.00 0.00 0.00 0.00 0.00 0.00 0.00 0.00 0.00 0.00 0.00 0.00 0.00 0.00 0.00 0.00 0.00 0.00 0.00 0.00 0.00 0.00 0.00 0.00 0.00 0.00 0.00 0.00 0.00 0.00 0.00 0.00 0.00 0.01 0.01
0.00 0.00 0.00 0.00 0.00 0.00 0.00 0.00 0.00 0.00 0.00 0.00 0.00 0.00 0.00 0.00 0.00 0.00 0.00 0.00 0.00 0.00 0.00 0.00 0.00 0.00 0.00 0.00 0.00 0.00 0.00 0.00 0.00 0.00 0.00 0.00 0.00 0.00 0.00 0.00 0.00 0.00 0.00 0.00 0.00 0.00 0.00 0.01 0.01
0.00 0.00 0.00 0.00 0.00 0.00 0.00 0.00 0.00 0.00 0.00 0.00 0.00 0.00 0.00 0.00 0.00 0.00 0.00 0.00 0.00 0.00 0.00 0.00 0.00 0.00 0.00 0.00 0.00 0.00 0.00 0.00 0.00 0.00 0.00 0.00 0.00 0.00 0.00 0.00 0.00 0.00 0.00 0.00 0.00 0.00 0.00 0.01 0.01
0.00 0.00 0.00 0.00 0.00 0.00 0.00 0.00 0.00 0.00 0.00 0.00 0.00 0.00 0.00 0.00 0.00 0.00 0.00 0.00 0.00 0.00 0.00 0.00 0.00 0.00 0.00 0.00 0.00 0.00 0.00 0.00 0.00 0.00 0.00 0.00 0.00 0.00 0.00 0.00 0.00 0.00 0.00 0.00 0.00 0.00 0.00 0.00 0.01
0.00 0.00 0.00 0.00 0.00 0.00 0.00 0.00 0.00 0.00 0.00 0.00 0.00 0.00 0.00 0.00 0.00 0.00 0.00 0.00 0.00 0.00 0.00 0.00 0.00 0.00 0.00 0.00 0.00 0.00 0.00 0.00 0.00 0.00 0.00 0.00 0.00 0.00 0.00 0.00 0.00 0.00 0.00 0.00 0.00 0.00 0.00 0.00 0.00
0.00 0.00 0.00 0.00 0.00 0.00 0.00 0.00 0.00 0.00 0.00 0.00 0.00 0.00 0.00 0.00 0.00 0.00 0.00 0.00 0.00 0.00 0.00 0.00 0.00 0.00 0.00 0.00 0.00 0.00 0.00 0.00 0.00 0.00 0.00 0.00 0.00 0.00 0.00 0.00 0.00 0.00 0.00 0.00 0.00 0.01 0.00 0.00 0.00
0.00 0.00 0.00 0.00 0.00 0.00 0.00 0.00 0.00 0.00 0.00 0.00 0.00 0.00 0.00 0.00 0.00 0.00 0.00 0.00 0.00 0.00 0.00 0.00 0.00 0.00 0.00 0.00 0.00 0.00 0.00 0.00 0.00 0.00 0.00 0.00 0.00 0.00 0.00 0.00 0.00 0.00 0.00 0.00 0.00 0.00 0.00 0.00 0.00
0.00 0.00 0.00 0.00 0.00 0.00 0.00 0.00 0.00 0.00 0.00 0.00 0.00 0.00 0.00 0.00 0.00 0.00 0.00 0.00 0.00 0.00 0.00 0.00 0.00 0.00 0.00 0.00 0.00 0.00 0.00 0.00 0.00 0.00 0.00 0.00 0.00 0.00 0.00 0.01 0.00 0.01 0.00 0.00 0.00 0.00 0.00 0.00 0.00
0.00 0.00 0.00 0.00 0.00 0.00 0.00 0.00 0.00 0.00 0.00 0.00 0.00 0.00 0.00 0.00 0.00 0.00 0.00 0.00 0.00 0.00 0.00 0.00 0.00 0.00 0.00 0.00 0.00 0.00 0.00 0.00 0.00 0.00 0.01 0.02 0.02 0.01 0.00 0.02 0.02 0.01 0.00 0.00 0.00 0.01 0.02 0.02 0.00
0.00 0.00 0.00 0.01 0.00 0.00 0.00 0.00 0.00 0.00 0.00 0.00 0.00 0.00 0.00 0.00 0.00 0.00 0.00 0.00 0.00 0.00 0.00 0.00 0.00 0.00 0.00 0.00 0.00 0.00 0.00 0.00 0.00 0.00 0.00 0.02 0.02 0.01 0.01 0.02 0.03 0.02 0.01 0.01 0.01 0.01 0.01 0.05 0.02
0.00 0.00 0.00 0.00 0.00 0.00 0.00 0.00 0.01 0.00 0.00 0.00 0.00 0.00 0.00 0.00 0.00 0.00 0.00 0.00 0.00 0.00 0.00 0.00 0.00 0.00 0.00 0.00 0.00 0.00 0.00 0.00 0.00 0.00 0.00 0.00 0.03 0.04 0.02 0.02 0.02 0.02 0.02 0.04 0.02 0.01 0.01 0.01 0.05
0.00 0.00 0.00 0.00 0.00 0.00 0.00 0.00 0.02 0.02 0.00 0.00 0.00 0.00 0.00 0.00 0.00 0.00 0.00 0.00 0.00 0.00 0.00 0.00 0.00 0.01 0.01 0.01 0.00 0.00 0.01 0.02 0.01 0.01 0.01 0.02 0.01 0.03 0.02 0.01 0.03 0.03 0.04 0.09 0.02 0.01 0.01 0.01 0.01
0.00 0.00 0.00 0.00 0.00 0.00 0.00 0.01 0.02 0.01 0.00 0.00 0.00 0.00 0.00 0.00 0.00 0.00 0.00 0.00 0.00 0.00 0.00 0.00 0.00 0.01 0.02 0.02 0.01 0.01 0.04 0.11 0.17 0.16 0.12 0.09 0.07 0.06 0.04 0.01 0.01 0.02 0.02 0.07 0.04 0.03 0.01 0.01 0.01
0.00 0.00 0.00 0.00 0.00 0.00 0.00 0.00 0.00 0.00 0.00 0.00 0.00 0.00 0.00 0.00 0.00 0.00 0.00 0.00 0.00 0.00 0.00 0.00 0.01 0.09 0.23 0.20 0.06 0.02 0.02 0.07 0.21 0.36 0.30 0.27 0.17 0.18 0.16 0.07 0.07 0.06 0.05 0.03 0.03 0.04 0.03 0.01 0.01
MSLP
1011.58 1010.63 1009.07 1008.26 1006.83 1003.91 1001.01 999.29 999.83 1000.39 1001.17 1002.10 1002.40 1002.31 1001.83 1001.69 1001.15 1001.08 1001.77 1003.20 1003.62 1003.68 1004.97 1006.24 1006.84 1007.09 1007.39 1007.70 1008.09 1008.45 1008.85 1009.15 1009.58 1010.02 1010.50 1010.98 1011.38 1011.73 1012.01 1012.21 1012.39 1012.59 1012.65 1012.79 1013.08 1013.27 1013.43 1013.54 1013.76
1009.95 1009.40 1008.64 1006.80 1004.94 1001.66 999.22 999.13 1000.12 1000.57 1001.67 1002.86 1002.81 1002.54 1002.25 1001.80 1002.35 1002.49 1002.33 1003.49 1003.99 1003.85 1004.89 1005.87 1006.87 1007.11 1007.42 1007.87 1008.20 1008.48 1008.84 1009.21 1009.55 1010.08 1010.57 1010.94 1011.37 1011.76 1012.04 1012.30 1012.53 1012.71 1012.73 1012.97 1013.28 1013.45 1013.45 1013.65 1013.92
1010.60 1009.29 1007.55 1005.00 1003.20 1001.12 999.40 1000.21 1000.74 1001.90 1002.80 1002.79 1002.68 1002.65 1002.26 1002.49 1003.16 1003.56 1003.58 1003.92 1004.25 1003.98 1004.63 1005.74 1007.09 1007.34 1007.54 1007.96 1008.41 1008.76 1009.15 1009.43 1009.80 1010.23 1010.62 1011.05 1011.36 1011.78 1012.12 1012.36 1012.61 1012.74 1012.90 1013.08 1013.33 1013.62 1013.74 1013.86 1014.09
1009.43 1008.44 1007.24 1004.75 1002.08 1000.55 1000.11 1000.58 1001.96 1002.19 1002.59 1003.12 1002.84 1002.52 1002.73 1003.73 1003.96 1004.01 1004.10 1004.06 1004.31 1004.16 1004.53 1006.25 1007.35 1007.76 1007.82 1008.16 1008.60 1008.96 1009.38 1009.61 1010.01 1010.41 1010.80 1011.11 1011.44 1011.75 1012.12 1012.48 1012.70 1012.86 1013.01 1013.18 1013.43 1013.65 1013.96 1014.12 1014.25
1009.03 1006.93 1005.31 1003.20 1001.52 1000.65 1000.09 1001.25 1002.19 1002.60 1002.57 1002.93 1002.97 1002.62 1002.68 1003.32 1004.02 1004.27 1004.21 1004.29 1004.29 1004.40 1004.81 1006.35 1007.42 1008.06 1008.15 1008.34 1008.74 1009.23 1009.56 1009.88 1010.30 1010.64 1010.87 1011.13 1011.47 1011.80 1012.13 1012.51 1012.76 1012.92 1013.07 1013.29 1013.53 1013.78 1013.99 1014.22 1014.44
1007.88 1006.57 1004.52 1002.49 1000.78 999.95 1000.11 1001.67 1002.60 1002.64 1002.66 1002.74 1002.92 1002.86 1002.67 1003.26 1004.22 1004.59 1004.52 1004.54 1004.59 1004.57 1005.03 1006.08 1007.48 1008.02 1008.31 1008.54 1008.89 1009.23 1009.63 1009.93 1010.26 1010.64 1011.02 1011.31 1011.51 1011.69 1011.90 1012.31 1012.77 1013.03 1013.12 1013.29 1013.51 1013.82 1014.09 1014.42 1014.58
1007.88 1005.85 1004.31 1002.73 1001.26 1000.58 1000.60 1001.41 1002.72 1002.71 1002.54 1002.45 1002.83 1003.13 1002.73 1003.20 1004.20 1004.59 1004.51 1004.96 1005.07 1005.01 1005.39 1005.85 1007.10 1007.93 1008.49 1008.59 1008.80 1009.10 1009.53 1009.93 1010.34 1010.72 1011.11 1011.41 1011.77 1012.04 1012.28 1012.40 1012.54 1012.81 1013.11 1013.30 1013.42 1013.72 1013.99 1014.29 1014.56
1008.20 1006.72 1004.66 1003.17 1001.74 1000.98 1001.40 1002.36 1003.18 1003.15 1002.88 1003.39 1003.79 1002.98 1002.61 1003.30 1004.18 1004.53 1004.01 1004.68 1005.20 1005.45 1005.73 1006.05 1006.73 1007.50 1008.06 1008.53 1009.09 1009.30 1009.55 1009.79 1010.23 1010.65 1011.04 1011.51 1011.87 1012.18 1012.38 1012.63 1012.77 1012.96 1013.10 1013.36 1013.56 1013.81 1014.03 1014.21 1014.50
1009.02 1007.01 1004.60 1003.15 1002.24 1001.71 1002.10 1003.15 1002.92 1003.69 1003.88 1003.42 1003.76 1003.73 1003.62 1003.76 1004.25 1004.22 1003.90 1003.80 1004.77 1005.52 1005.68 1006.04 1006.58 1007.20 1007.52 1008.07 1008.92 1009.55 1009.72 1009.96 1010.26 1010.52 1010.90 1011.28 1011.14 1011.68 1012.15 1012.33 1012.47 1012.92 1013.06 1013.27 1013.55 1013.69 1013.90 1014.20 1014.47
1008.30 1006.44 1004.47 1003.66 1003.44 1003.14 1003.05 1003.33 1003.46 1003.58 1003.73 1003.66 1003.76 1003.88 1004.06 1004.11 1004.07 1004.07 1003.93 1003.40 1003.55 1004.62 1005.52 1006.20 1007.10 1007.67 1007.71 1007.37 1008.01 1008.85 1009.19 1009.50 1009.79 1009.95 1010.36 1010.74 1010.75 1010.70 1010.98 1011.56 1012.60 1012.84 1013.12 1013.20 1013.46 1013.67 1013.99 1014.31 1013.59
1007.51 1006.11 1005.15 1004.27 1004.28 1004.72 1004.63 1004.15 1004.14 1003.84 1003.67 1003.95 1003.89 1003.98 1004.04 1004.21 1004.32 1004.08 1003.94 1003.61 1003.33 1003.42 1004.64 1005.99 1006.99 1007.64 1007.81 1007.71 1007.31 1007.88 1008.17 1008.80 1009.23 1009.61 1009.72 1010.04 1010.01 1010.20 1010.60 1010.71 1011.67 1012.44 1012.98 1012.74 1013.09 1013.37 1013.46 1013.30 1012.89
1007.20 1006.40 1005.84 1005.32 1005.11 1004.98 1004.80 1004.51 1004.13 1004.14 1003.86 1004.07 1004.22 1004.52 1004.60 1004.45 1004.51 1004.12 1003.74 1003.52 1003.49 1003.68 1003.95 1005.20 1005.98 1006.81 1007.32 1007.29 1007.29 1007.38 1007.59 1008.40 1008.18 1008.70 1009.23 1009.31 1009.74 1009.53 1010.10 1010.15 1010.70 1011.37 1011.83 1012.12 1011.82 1011.89 1012.44 1012.57 1012.62
1006.79 1006.31 1005.95 1005.45 1005.33 1005.43 1005.14 1004.65 1004.22 1003.87 1004.01 1004.23 1004.33 1004.47 1004.71 1004.74 1004.47 1004.13 1003.76 1003.67 1003.73 1004.09 1004.09 1004.46 1005.27 1006.10 1006.59 1006.91 1006.87 1006.90 1007.20 1007.57 1008.08 1008.39 1008.38 1008.86 1008.88 1009.03 1009.25 1009.40 1009.57 1010.00 1011.04 1011.26 1011.54 1011.79 1011.97 1012.22 1012.59
1006.91 1006.24 1006.10 1005.45 1005.13 1005.06 1004.81 1004.18 1004.10 1003.59 1003.71 1003.90 1004.08 1004.15 1004.39 1004.61 1004.39 1004.05 1003.58 1003.66 1003.63 1004.09 1004.30 1004.65 1004.92 1005.64 1006.04 1006.44 1006.77 1006.39 1006.64 1006.71 1007.39 1008.03 1008.19 1008.50 1008.59 1008.72 1008.74 1009.06 1009.21 1009.27 1009.98 1011.05 1010.89 1011.42 1011.69 1012.05 1012.28
1006.86 1006.45 1005.92 1005.18 1004.66 1004.22 1004.57 1003.37 1002.85 1002.80 1002.84 1002.89 1003.33 1003.44 1003.76 1004.12 1004.40 1004.08 1004.00 1003.95 1004.56 1004.81 1004.70 1005.22 1005.54 1005.45 1005.71 1006.06 1006.35 1006.45 1006.13 1006.46 1006.72 1007.21 1007.65 1007.60 1008.19 1008.37 1009.17 1009.01 1008.74 1008.86 1009.15 1010.07 1011.06 1011.18 1011.33 1011.75 1012.13
1006.83 1006.02 1004.67 1003.31 1002.82 1003.47 1004.17 1002.02 1001.49 1001.62 1002.07 1002.46 1002.69 1002.74 1002.97 1003.27 1003.61 1003.78 1004.16 1005.04 1005.18 1005.20 1005.46 1005.93 1006.04 1005.95 1005.63 1005.65 1005.91 1006.02 1005.96 1005.87 1006.08 1006.20 1006.57 1007.06 1007.22 1007.77 1008.09 1009.02 1008.88 1008.72 1008.93 1009.33 1010.41 1010.74 1010.91 1011.50 1011.82
1005.53 1003.96 1003.27 1001.89 1002.24 1003.42 1003.49 1002.07 1001.35 1001.72 1002.22 1002.33 1002.11 1002.17 1002.45 1002.70 1003.08 1003.80 1004.99 1005.48 1005.96 1005.92 1006.28 1006.20 1006.35 1006.34 1006.28 1005.97 1005.76 1005.48 1005.49 1005.41 1005.41 1005.42 1005.72 1005.90 1006.50 1006.92 1007.47 1008.30 1008.98 1009.22 1009.30 1009.10 1009.88 1010.52 1010.57 1011.16 1011.16
1003.81 1002.53 1001.48 1001.31 1001.91 1001.93 1002.53 1001.76 1001.63 1001.67 1001.81 1001.94 1001.80 1001.80 1002.03 1002.32 1002.96 1004.28 1005.73 1006.35 1006.46 1006.41 1006.67 1006.75 1006.74 1006.75 1006.69 1006.45 1005.85 1004.98 1004.74 1004.73 1004.81 1004.78 1004.91 1005.36 1005.67 1006.29 1006.87 1007.33 1008.43 1009.07 1009.15 1009.19 1009.37 1010.21 1010.79 1010.76 1010.78
1004.50 1003.56 1002.22 1001.76 1001.67 1002.25 1001.98 1001.52 1001.33 1001.17 1000.78 1000.81 1001.36 1001.35 1001.89 1002.39 1003.47 1005.14 1006.36 1006.64 1006.84 1006.90 1006.96 1007.12 1007.21 1007.13 1006.90 1006.45 1005.72 1004.98 1004.27 1004.11 1004.02 1004.34 1004.33 1004.62 1005.11 1005.73 1006.17 1006.66 1007.73 1008.16 1008.72 1008.77 1009.16 1010.11 1010.85 1011.07 1010.82
1004.14 1003.66 1002.83 1002.48 1002.47 1002.61 1002.02 1001.12 1000.72 1000.25 999.80 1000.05 1000.53 1000.85 1001.47 1002.90 1004.46 1005.74 1006.46 1006.84 1007.30 1007.41 1007.48 1007.46 1007.33 1007.32 1007.20 1006.89 1006.33 1005.69 1004.83 1003.76 1003.45 1003.71 1003.73 1003.96 1004.39 1005.17 1005.60 1006.01 1006.71 1007.35 1007.83 1008.46 1008.75 1009.24 1010.21 1010.75 1010.80
1003.83 1003.63 1003.23 1002.85 1002.57 1002.12 1002.21 1000.82 999.91 998.90 999.10 999.45 1000.04 1001.26 1002.46 1004.17 1005.43 1006.39 1006.92 1007.21 1007.62 1007.77 1008.10 1008.02 1007.71 1007.73 1007.56 1007.42 1006.82 1005.94 1005.13 1004.45 1003.58 1002.83 1003.13 1003.18 1003.49 1004.15 1004.90 1005.66 1006.14 1006.55 1007.20 1007.58 1008.12 1008.51 1009.11 1009.90 1010.50
1003.61 1003.65 1003.59 1003.56 1003.17 1002.03 1001.48 999.37 997.89 998.16 999.35 1000.06 1001.09 1002.68 1004.10 1005.67 1006.53 1006.90 1007.23 1007.54 1007.84 1008.02 1008.50 1008.54 1008.43 1008.26 1007.90 1007.79 1007.18 1006.62 1006.02 1004.72 1003.24 1002.25 1001.99 1002.41 1002.89 1003.41 1004.11 1004.81 1005.32 1005.53 1006.23 1006.69 1007.22 1008.08 1008.42 1009.03 1009.74
1004.25 1004.11 1004.03 1003.87 1003.29 1002.60 1001.30 1000.08 998.36 998.15 998.33 1000.26 1002.13 1003.85 1005.76 1006.53 1007.08 1007.30 1007.52 1007.89 1008.00 1008.24 1008.63 1008.89 1009.00 1008.70 1008.47 1008.36 1007.99 1007.49 1006.61 1005.62 1004.29 1002.85 1001.60 1001.14 1001.85 1002.67 1003.57 1004.10 1004.41 1004.77 1005.23 1005.65 1006.15 1007.20 1007.60 1008.05 1008.73
1004.84 1004.64 1004.72 1004.39 1003.56 1002.12 1000.94 1000.07 998.22 997.40 998.20 1000.15 1003.17 1005.25 1006.56 1007.11 1007.38 1007.74 1008.07 1008.31 1008.38 1008.74 1009.06 1009.24 1009.23 1009.08 1009.05 1008.87 1008.60 1008.22 1007.55 1006.69 1005.30 1003.84 1002.10 1000.61 1000.46 1001.36 1002.44 1003.29 1003.97 1004.20 1004.34 1004.70 1005.19 1005.80 1006.40 1006.53 1007.16
1005.39 1005.31 1004.81 1003.84 1003.09 1001.58 1000.69 999.53 998.94 999.12 1000.20 1001.32 1003.73 1005.73 1007.16 1007.67 1007.99 1008.28 1008.48 1008.78 1008.94 1009.18 1009.38 1009.46 1009.56 1009.53 1009.39 1009.13 1008.75 1008.38 1007.71 1006.86 1005.76 1004.40 1002.73 1001.25 1000.00 1000.44 1001.30 1002.34 1003.14 1003.41 1003.61 1003.83 1004.29 1004.79 1005.82 1006.70 1006.56
1005.47 1005.66 1005.30 1004.23 1003.22 1001.99 1000.15 1000.08 1000.12 1001.91 1003.39 1004.70 1005.78 1007.00 1007.65 1008.13 1008.53 1008.77 1009.12 1009.41 1009.62 1009.89 1009.94 1010.11 1010.16 1009.97 1009.70 1009.27 1008.84 1008.46 1007.81 1006.73 1005.59 1004.32 1002.70 1000.95 999.70 999.37 1000.39 1001.10 1002.08 1002.54 1002.86 1003.08 1003.66 1004.14 1004.91 1004.75 1006.00
1005.53 1005.31 1005.34 1005.16 1004.80 1003.42 1001.94 1001.19 1002.75 1004.14 1004.77 1005.97 1006.94 1007.50 1008.00 1008.62 1008.87 1009.27 1009.66 1009.93 1010.16 1010.34 1010.55 1010.87 1010.88 1010.61 1010.09 1009.48 1008.75 1008.12 1007.12 1006.15 1005.04 1003.88 1002.58 1000.69 999.04 998.72 999.23 1000.07 1001.01 1001.74 1002.12 1002.57 1003.04 1003.46 1003.64 1004.45 1003.29
1006.63 1006.97 1006.25 1005.66 1005.15 1003.74 1002.73 1002.25 1001.91 1004.66 1006.31 1007.05 1007.63 1008.54 1009.15 1009.43 1009.61 1009.89 1010.05 1010.31 1010.61 1010.85 1010.95 1011.26 1011.26 1010.77 1010.12 1009.37 1008.58 1007.38 1006.11 1005.20 1003.95 1002.82 1001.23 999.64 997.77 997.68 998.19 998.95 999.94 1000.93 1001.30 1001.96 1002.56 1002.97 1003.20 1003.50 1004.01
1007.16 1007.06 1007.17 1006.83 1006.54 1005.43 1004.34 1003.66 1004.69 1006.17 1007.01 1007.71 1008.29 1009.32 1009.78 1010.17 1010.47 1010.85 1011.03 1011.34 1011.41 1011.66 1011.68 1011.74 1011.49 1010.95 1010.17 1009.19 1007.97 1006.70 1005.48 1004.18 1002.52 1000.46 998.74 997.69 996.78 996.74 997.39 998.17 999.06 1000.06 1000.64 1001.40 1002.03 1002.28 1002.83 1003.37 1004.12
1007.45 1007.25 1007.30 1007.31 1006.96 1006.10 1005.31 1004.58 1005.58 1006.82 1007.41 1008.30 1009.05 1009.68 1010.32 1010.93 1011.18 1011.38 1011.57 1011.89 1012.17 1012.49 1012.71 1012.48 1012.07 1011.59 1010.53 1009.31 1008.09 1006.58 1005.30 1003.67 1001.46 999.39 997.01 995.85 996.18 996.33 996.68 997.77 998.49 999.27 1000.03 1000.76 1001.41 1001.49 1002.13 1002.93 1003.77
Thickness
5744 5750 5764 5758 5740 5760 5769 5790 5796 5779 5775 5786 5787 5782 5783 5789 5782 5769 5815 5814 5813 5813 5803 5793 5788 5786 5783 5780 5777 5773 5769 5766 5762 5758 5754 5749 5745 5743 5740 5738 5737 5734 5733 5731 5728 5726 5724 5723 5719
5752 5755 5756 5754 5738 5754 5787 5803 5776 5781 5780 5779 5779 5781 5778 5774 5794 5796 5801 5807 5807 5808 5800 5792 5784 5782 5779 5775 5772 5768 5765 5761 5758 5754 5749 5746 5742 5739 5737 5735 5732 5730 5729 5727 5724 5721 5721 5719 5716
5744 5751 5743 5751 5752 5753 5777 5776 5775 5772 5771 5772 5770 5783 5779 5772 5787 5786 5798 5800 5800 5803 5798 5789 5778 5776 5774 5770 5766 5762 5758 5756 5752 5748 5745 5741 5739 5735 5733 5731 5729 5727 5725 5723 5721 5716 5715 5715 5713
5740 5742 5742 5736 5749 5775 5776 5773 5767 5764 5768 5769 5772 5763 5780 5783 5778 5787 5793 5795 5792 5795 5794 5781 5772 5767 5766 5764 5761 5757 5752 5750 5746 5742 5740 5738 5735 5733 5729 5726 5724 5722 5720 5718 5716 5714 5711 5710 5708
5737 5743 5728 5742 5757 5773 5785 5773 5766 5754 5759 5759 5766 5758 5763 5779 5784 5784 5785 5787 5785 5786 5785 5774 5766 5760 5760 5758 5755 5750 5747 5743 5739 5736 5734 5732 5730 5728 5726 5722 5720 5718 5717 5715 5712 5709 5708 5706 5704
5723 5734 5723 5732 5760 5781 5782 5769 5757 5755 5758 5759 5757 5756 5762 5777 5773 5774 5779 5779 5782 5780 5779 5771 5760 5756 5753 5751 5749 5746 5742 5739 5735 5731 5728 5727 5726 5724 5723 5720 5715 5712 5712 5710 5708 5705 5703 5700 5700
5712 5723 5721 5736 5752 5760 5768 5771 5749 5750 5754 5753 5765 5743 5762 5765 5771 5771 5773 5771 5772 5774 5770 5768 5757 5751 5747 5747 5745 5743 5739 5735 5730 5727 5723 5721 5718 5717 5716 5715 5714 5710 5707 5705 5704 5702 5700 5698 5696
5711 5713 5715 5732 5740 5747 5761 5754 5750 5747 5746 5756 5755 5742 5747 5757 5766 5765 5772 5766 5763 5763 5761 5760 5754 5749 5744 5740 5736 5735 5734 5732 5727 5723 5720 5715 5712 5710 5709 5708 5707 5705 5704 5701 5699 5698 5696 5695 5693
5704 5694 5704 5725 5733 5744 5753 5735 5752 5749 5738 5745 5746 5746 5753 5757 5757 5757 5760 5763 5756 5752 5754 5753 5750 5744 5741 5737 5731 5728 5727 5725 5723 5720 5717 5713 5713 5708 5705 5703 5703 5700 5700 5699 5696 5695 5693 5691 5689
5692 5693 5710 5731 5730 5728 5736 5733 5735 5732 5731 5730 5733 5742 5745 5747 5747 5744 5746 5751 5756 5749 5745 5744 5737 5732 5733 5736 5732 5725 5724 5723 5722 5720 5716 5712 5711 5711 5710 5706 5697 5695 5694 5694 5692 5691 5688 5685 5690
5693 5690 5711 5719 5720 5716 5711 5718 5725 5720 5716 5721 5720 5726 5732 5732 5734 5735 5738 5743 5748 5754 5746 5737 5730 5725 5725 5726 5729 5726 5726 5722 5720 5717 5715 5712 5712 5710 5707 5706 5699 5693 5690 5691 5690 5688 5686 5686 5690
5678 5695 5699 5704 5707 5706 5702 5711 5710 5711 5715 5722 5722 5719 5718 5718 5720 5726 5730 5735 5738 5741 5742 5736 5731 5725 5722 5724 5723 5724 5725 5719 5722 5718 5714 5713 5709 5712 5707 5706 5702 5697 5692 5690 5694 5694 5690 5688 5687
5679 5686 5693 5698 5698 5694 5699 5695 5699 5702 5710 5713 5712 5710 5706 5707 5712 5720 5725 5728 5728 5724 5730 5731 5729 5723 5719 5717 5719 5721 5720 5719 5715 5713 5714 5711 5712 5709 5707 5707 5704 5702 5694 5693 5691 5689 5688 5687 5683
5679 5682 5680 5688 5688 5690 5685 5690 5692 5700 5706 5699 5700 5700 5700 5698 5702 5707 5714 5716 5716 5718 5718 5719 5720 5717 5716 5713 5711 5716 5715 5716 5712 5709 5708 5707 5706 5705 5705 5703 5703 5701 5696 5688 5690 5686 5685 5683 5681
5673 5661 5668 5676 5682 5682 5683 5681 5685 5699 5700 5697 5693 5695 5694 5693 5694 5697 5701 5700 5701 5702 5705 5703 5703 5707 5707 5706 5704 5704 5710 5708 5709 5707 5704 5705 5702 5702 5694 5696 5699 5699 5696 5689 5682 5682 5682 5679 5677
5651 5657 5655 5685 5689 5681 5671 5672 5696 5700 5693 5688 5687 5689 5688 5688 5689 5691 5688 5686 5685 5687 5687 5688 5688 5690 5696 5697 5697 5698 5700 5702 5704 5705 5705 5703 5704 5699 5698 5691 5692 5693 5691 5689 5681 5679 5678 5674 5673
5650 5649 5659 5676 5680 5664 5658 5664 5687 5689 5679 5676 5680 5683 5682 5682 5682 5679 5674 5672 5669 5670 5669 5672 5675 5676 5678 5684 5688 5692 5694 5695 5698 5701 5702 5703 5701 5698 5694 5690 5684 5682 5683 5685 5680 5674 5676 5670 5671
5646 5655 5670 5661 5670 5662 5650 5661 5669 5673 5670 5667 5672 5675 5674 5674 5670 5663 5656 5654 5656 5657 5655 5656 5658 5661 5664 5668 5676 5686 5688 5690 5693 5697 5697 5697 5697 5693 5690 5689 5681 5676 5677 5676 5677 5670 5666 5669 5668
5628 5629 5640 5652 5659 5641 5642 5648 5656 5664 5667 5666 5663 5666 5664 5662 5658 5648 5640 5640 5641 5644 5644 5643 5643 5645 5649 5654 5661 5669 5676 5681 5685 5687 5691 5691 5689 5687 5687 5686 5679 5675 5672 5672 5670 5663 5656 5657 5662
5615 5610 5618 5631 5635 5625 5631 5636 5649 5658 5664 5663 5660 5660 5658 5648 5637 5631 5629 5627 5625 5626 5628 5630 5632 5633 5635 5638 5643 5651 5661 5674 5679 5681 5682 5684 5684 5682 5683 5681 5677 5673 5670 5667 5666 5664 5655 5651 5655
5601 5598 5604 5605 5619 5621 5616 5621 5639 5657 5660 5661 5656 5649 5640 5626 5617 5614 5613 5613 5612 5612 5611 5613 5618 5619 5622 5624 5630 5639 5647 5654 5662 5671 5672 5677 5680 5677 5676 5672 5670 5669 5666 5664 5662 5661 5658 5648 5648
5581 5603 5595 5590 5591 5587 5624 5610 5653 5643 5635 5636 5632 5622 5614 5604 5600 5600 5600 5600 5599 5600 5598 5598 5600 5602 5608 5610 5616 5621 5627 5638 5654 5663 5668 5669 5670 5669 5668 5667 5664 5664 5663 5661 5659 5654 5654 5650 5643
5570 5590 5579 5582 5582 5586 5602 5602 5632 5647 5636 5617 5611 5604 5591 5587 5586 5586 5587 5586 5587 5588 5586 5585 5584 5588 5591 5593 5597 5602 5611 5620 5633 5646 5658 5666 5665 5663 5659 5659 5660 5658 5659 5660 5658 5651 5651 5650 5645
5573 5568 5565 5570 5573 5565 5599 5602 5621 5643 5635 5617 5591 5583 5576 5574 5574 5573 5573 5573 5574 5573 5571 5571 5572 5574 5575 5577 5579 5583 5588 5596 5609 5624 5638 5656 5661 5659 5656 5651 5649 5651 5654 5655 5655 5654 5652 5654 5650
5553 5546 5540 5547 5553 5564 5602 5607 5616 5620 5606 5601 5584 5573 5562 5561 5560 5560 5559 5558 5558 5557 5557 5559 5558 5558 5558 5560 5564 5567 5572 5579 5589 5603 5618 5634 5647 5648 5650 5646 5643 5645 5649 5652 5653 5652 5646 5638 5643
5541 5538 5532 5526 5550 5567 5603 5584 5599 5583 5578 5568 5562 5554 5551 5548 5547 5547 5545 5544 5543 5542 5543 5542 5540 5541 5542 5544 5547 5549 5553 5562 5574 5588 5604 5620 5634 5642 5643 5643 5639 5641 5643 5645 5646 5645 5638 5640 5636
5541 5536 5550 5538 5545 5552 5575 5590 5571 5560 5556 5549 5544 5541 5539 5536 5536 5534 5532 5531 5530 5528 5527 5523 5522 5522 5524 5526 5530 5533 5539 5545 5556 5568 5583 5603 5623 5632 5636 5636 5634 5635 5637 5637 5639 5640 5643 5639 5632
5525 5523 5520 5532 5524 5538 5563 5571 5580 5540 5528 5530 5529 5525 5521 5520 5520 5519 5519 5519 5516 5513 5512 5507 5505 5506 5507 5509 5512 5521 5530 5537 5549 5559 5574 5594 5617 5624 5629 5631 5631 5630 5632 5631 5630 5632 5635 5637 5636
5510 5508 5511 5517 5519 5518 5530 5554 5544 5523 5519 5517 5518 5510 5506 5504 5503 5500 5499 5497 5497 5494 5492 5490 5488 5490 5491 5496 5504 5514 5523 5535 5549 5570 5586 5597 5610 5618 5621 5625 5625 5624 5625 5623 5624 5627 5628 5628 5626
5507 5507 5509 5502 5508 5523 5527 5535 5530 5521 5516 5507 5501 5497 5494 5490 5490 5489 5486 5482 5477 5472 5469 5469 5470 5471 5475 5484 5493 5506 5517 5530 5549 5567 5592 5603 5603 5610 5617 5616 5617 5618 5618 5619 5618 5626 5625 5623 5621